Location: Lecco
(45.8566°N, 9.3977°E)
Time: 14:44:13
(UTC+02:00)

S-56A Canister/Altair - Pass Details

Date: 23 July 2019
Orbit: 633 x 2499 km, 38.9° (Epoch: 20 August)

Event Time Altitude Azimuth Distance (km) Brightness Sun altitude
Rises 08:42:44 0° 247° (WSW) 5,051 11.2 27.0°
Reaches altitude 10° 08:45:44 10° 244° (WSW) 4,276 10.9 27.5°
Maximum altitude 08:57:46 62° 167° (SSE) 2,550 10.7 29.6°
Drops below altitude 10° 09:12:33 10° 93° (E) 5,158 13.3 32.2°
Sets 09:16:34 0° 90° (E) 6,120 13.2 32.9°
